This is the latest recevied weather packets stored in our database for station/object N1ORT. If no packets are shown the sender has not sent any weather packets the latest 10 day(s).
| Time | Temp. | Humidity | Pressure | Rain* | Wind** | Luminosity | Snow |
|---|---|---|---|---|---|---|---|
| 1777155791 | 10° C | 45% | 1015.3 hPa | 0 mm | - | 58 W/m² | - |
| 1777155486 | 10.56° C | 45% | 1015.3 hPa | 0 mm | - | 65 W/m² | - |
| 1777155185 | 10.56° C | 47% | 1015.3 hPa | 0 mm | - | 71 W/m² | - |
| 1777154882 | 10.56° C | 45% | 1015.4 hPa | 0 mm | - | 79 W/m² | - |
| 1777154578 | 10.56° C | 45% | 1015.3 hPa | 0 mm | - | 88 W/m² | - |
| 1777154274 | 10.56° C | 45% | 1015.3 hPa | 0 mm | - | 99 W/m² | - |
| 1777153969 | 11.11° C | 43% | 1015.1 hPa | 0 mm | - | 107 W/m² | - |
| 1777153665 | 10.56° C | 45% | 1015.4 hPa | 0 mm | - | 112 W/m² | - |
| 1777153362 | 10.56° C | 44% | 1015.3 hPa | 0 mm | - | 114 W/m² | - |
| 1777153058 | 10.56° C | 43% | 1015.3 hPa | 0 mm | - | 119 W/m² | - |
| 1777152755 | 10.56° C | 44% | 1015.6 hPa | 0 mm | - | 123 W/m² | - |
| 1777152451 | 10.56° C | 43% | 1015.3 hPa | 0 mm | - | 126 W/m² | - |
| 1777152147 | 11.11° C | 44% | 1015.3 hPa | 0 mm | - | 131 W/m² | - |
| 1777151842 | 10.56° C | 44% | 1015.2 hPa | 0 mm | - | 143 W/m² | - |
| 1777151538 | 10.56° C | 43% | 1015.2 hPa | 0 mm | - | 154 W/m² | - |
| 1777151235 | 11.11° C | 43% | 1015.3 hPa | 0 mm | - | 146 W/m² | - |
| 1777150930 | 11.67° C | 42% | 1015.2 hPa | 0 mm | - | 170 W/m² | - |
| 1777150630 | 11.67° C | 42% | 1015.2 hPa | 0 mm | - | 197 W/m² | - |
| 1777150326 | 11.11° C | 43% | 1015.2 hPa | 0 mm | - | 190 W/m² | - |
| 1777150024 | 11.67° C | 41% | 1015.2 hPa | 0 mm | - | 195 W/m² | - |
| 1777149719 | 11.67° C | 43% | 1015.4 hPa | 0 mm | - | 221 W/m² | - |
| 1777149416 | 11.67° C | 43% | 1015.1 hPa | 0 mm | - | 242 W/m² | - |
| 1777149112 | 11.67° C | 42% | 1015.2 hPa | 0 mm | - | 228 W/m² | - |
| 1777148806 | 11.67° C | 42% | 1014.9 hPa | 0 mm | - | 246 W/m² | - |
| 1777148504 | 12.22° C | 40% | 1015 hPa | 0 mm | - | 242 W/m² | - |
* Rain latest hour (hover to see other rain measurements)
** Current wind speed in m/s (hover to see current wind gust speed)